Time,TemperatureF,DewpointF,PressureIn,WindDirection,WindDirectionDegrees,WindSpeedMPH,WindSpeedGustMPH,Humidity,HourlyPrecipIn,Conditions,Clouds,dailyrainin,SoftwareType,DateUTC
2013-02-21 00:01:00,24.7,16.6,29.96,West,277,0.0,7.0,71,0.00,,,0.00,Wunderground PWS Mod,2013-02-21 05:01:00,
2013-02-21 00:11:00,25.3,15.5,29.96,West,277,0.0,2.0,66,0.00,,,0.00,Wunderground PWS Mod,2013-02-21 05:11:00,
2013-02-21 00:21:00,26.0,15.1,29.97,West,277,1.0,1.0,63,0.00,,,0.00,Wunderground PWS Mod,2013-02-21 05:21:00,
2013-02-21 00:31:00,26.3,15.4,29.95,WNW,303,1.0,2.0,63,0.00,,,0.00,Wunderground PWS Mod,2013-02-21 05:31:00,
2013-02-21 00:41:00,26.3,15.8,29.96,West,262,1.0,1.0,64,0.00,,,0.00,Wunderground PWS Mod,2013-02-21 05:41:00,
2013-02-21 00:51:00,26.3,15.4,29.95,West,263,0.0,2.0,63,0.00,,,0.00,Wunderground PWS Mod,2013-02-21 05:51:00,
2013-02-21 01:01:00,26.2,15.3,29.96,WSW,258,1.0,1.0,63,0.00,,,0.00,Wunderground PWS Mod,2013-02-21 06:01:00,
2013-02-21 01:10:00,26.2,15.3,29.96,West,270,1.0,4.0,63,0.00,,,0.00,Wunderground PWS Mod,2013-02-21 06:10:00,
2013-02-21 01:11:00,26.3,15.8,29.96,West,275,0.0,4.0,64,0.00,,,0.00,Wunderground PWS Mod,2013-02-21 06:11:00,
2013-02-21 01:21:00,26.3,15.8,29.95,West,275,0.0,4.0,64,0.00,,,0.00,Wunderground PWS Mod,2013-02-21 06:21:00,
2013-02-21 01:31:00,26.2,15.3,29.95,West,275,0.0,4.0,63,0.00,,,0.00,Wunderground PWS Mod,2013-02-21 06:31:00,
2013-02-21 01:41:00,26.1,15.9,29.95,West,275,0.0,4.0,65,0.00,,,0.00,Wunderground PWS Mod,2013-02-21 06:41:00,
2013-02-21 01:51:00,25.9,16.1,29.95,West,275,0.0,4.0,66,0.00,,,0.00,Wunderground PWS Mod,2013-02-21 06:51:00,
2013-02-21 02:01:00,25.9,16.4,29.95,West,274,0.0,4.0,67,0.00,,,0.00,Wunderground PWS Mod,2013-02-21 07:01:00,
2013-02-21 02:12:00,25.9,15.4,29.95,West,274,0.0,2.0,64,0.00,,,0.00,Wunderground PWS Mod,2013-02-21 07:12:00,
2013-02-21 02:21:00,26.0,15.1,29.95,West,274,0.0,2.0,63,0.00,,,0.00,Wunderground PWS Mod,2013-02-21 07:21:00,
2013-02-21 02:31:00,26.1,15.2,29.95,SSE,150,0.0,2.0,63,0.00,,,0.00,Wunderground PWS Mod,2013-02-21 07:31:00,
2013-02-21 02:41:00,26.0,15.1,29.95,SSE,150,0.0,2.0,63,0.00,,,0.00,Wunderground PWS Mod,2013-02-21 07:41:00,
2013-02-21 02:51:00,26.0,14.8,29.95,SSE,150,0.0,2.0,62,0.00,,,0.00,Wunderground PWS Mod,2013-02-21 07:51:00,
2013-02-21 03:01:00,25.9,14.7,29.95,SSE,150,0.0,2.0,62,0.00,,,0.00,Wunderground PWS Mod,2013-02-21 08:01:00,
2013-02-21 03:10:00,25.9,14.7,29.95,SSE,158,0.0,1.0,62,0.00,,,0.00,Wunderground PWS Mod,2013-02-21 08:10:00,
2013-02-21 03:12:00,25.9,15.4,29.95,SSE,150,0.0,1.0,64,0.00,,,0.00,Wunderground PWS Mod,2013-02-21 08:12:00,
2013-02-21 03:21:00,25.8,15.6,29.95,SSE,150,0.0,1.0,65,0.00,,,0.00,Wunderground PWS Mod,2013-02-21 08:21:00,
2013-02-21 03:31:00,25.7,15.9,29.95,SSE,150,0.0,1.0,66,0.00,,,0.00,Wunderground PWS Mod,2013-02-21 08:31:00,
2013-02-21 03:41:00,25.5,15.4,29.94,SSE,150,0.0,1.0,65,0.00,,,0.00,Wunderground PWS Mod,2013-02-21 08:41:00,
2013-02-21 03:51:00,25.6,14.7,29.94,WSW,239,0.0,1.0,63,0.00,,,0.00,Wunderground PWS Mod,2013-02-21 08:51:00,
2013-02-21 04:01:00,25.7,15.6,29.95,WSW,240,1.0,1.0,65,0.00,,,0.00,Wunderground PWS Mod,2013-02-21 09:01:00,
2013-02-21 04:11:00,25.7,15.2,29.95,SSW,201,0.0,3.0,64,0.00,,,0.00,Wunderground PWS Mod,2013-02-21 09:11:00,
2013-02-21 04:21:00,25.8,15.3,29.95,SSW,202,0.0,3.0,64,0.00,,,0.00,Wunderground PWS Mod,2013-02-21 09:21:00,
2013-02-21 04:31:00,25.8,14.9,29.95,SW,216,1.0,1.0,63,0.00,,,0.00,Wunderground PWS Mod,2013-02-21 09:31:00,
2013-02-21 04:41:00,25.9,14.7,29.95,SW,228,1.0,1.0,62,0.00,,,0.00,Wunderground PWS Mod,2013-02-21 09:41:00,
2013-02-21 04:51:00,25.9,15.0,29.96,SW,217,0.0,3.0,63,0.00,,,0.00,Wunderground PWS Mod,2013-02-21 09:51:00,
2013-02-21 05:01:00,25.8,14.2,29.96,ESE,104,0.0,3.0,61,0.00,,,0.00,Wunderground PWS Mod,2013-02-21 10:01:00,
2013-02-21 05:10:00,25.8,14.2,29.96,SW,225,0.0,2.0,61,0.00,,,0.00,Wunderground PWS Mod,2013-02-21 10:10:00,
2013-02-21 05:11:00,25.8,15.3,29.97,ESE,104,0.0,2.0,64,0.00,,,0.00,Wunderground PWS Mod,2013-02-21 10:11:00,
2013-02-21 05:21:00,25.7,14.8,29.96,SSE,163,0.0,2.0,63,0.00,,,0.00,Wunderground PWS Mod,2013-02-21 10:21:00,
2013-02-21 05:31:00,25.7,13.7,29.96,SSE,164,0.0,2.0,60,0.00,,,0.00,Wunderground PWS Mod,2013-02-21 10:31:00,
2013-02-21 05:41:00,25.8,13.0,29.96,WSW,247,1.0,2.0,58,0.00,,,0.00,Wunderground PWS Mod,2013-02-21 10:41:00,
2013-02-21 05:51:00,25.7,14.1,29.96,South,171,1.0,2.0,61,0.00,,,0.00,Wunderground PWS Mod,2013-02-21 10:51:00,
2013-02-21 06:01:00,25.4,14.2,29.96,SE,144,0.0,3.0,62,0.00,,,0.00,Wunderground PWS Mod,2013-02-21 11:01:00,
2013-02-21 06:11:00,25.2,14.7,29.96,SSE,160,2.0,5.0,64,0.00,,,0.00,Wunderground PWS Mod,2013-02-21 11:11:00,
2013-02-21 06:21:00,25.1,13.9,29.96,SSE,148,1.0,1.0,62,0.00,,,0.00,Wunderground PWS Mod,2013-02-21 11:21:00,
2013-02-21 06:31:00,25.0,14.2,29.96,South,185,1.0,1.0,63,0.00,,,0.00,Wunderground PWS Mod,2013-02-21 11:31:00,
2013-02-21 06:41:00,25.0,13.8,29.96,South,170,1.0,1.0,62,0.00,,,0.00,Wunderground PWS Mod,2013-02-21 11:41:00,
2013-02-21 06:51:00,25.0,13.8,29.96,SE,126,1.0,5.0,62,0.00,,,0.00,Wunderground PWS Mod,2013-02-21 11:51:00,
2013-02-21 07:01:00,25.2,12.5,29.96,SSE,157,1.0,1.0,58,0.00,,,0.00,Wunderground PWS Mod,2013-02-21 12:01:00,
2013-02-21 07:10:00,25.1,12.8,29.96,SSE,158,1.0,8.0,59,0.00,,,0.00,Wunderground PWS Mod,2013-02-21 12:10:00,
2013-02-21 07:11:00,25.5,13.1,29.97,South,180,1.0,1.0,59,0.00,,,0.00,Wunderground PWS Mod,2013-02-21 12:11:00,
2013-02-21 07:21:00,25.7,12.9,29.97,South,180,1.0,1.0,58,0.00,,,0.00,Wunderground PWS Mod,2013-02-21 12:21:00,
2013-02-21 07:31:00,26.1,12.9,29.97,WNW,301,1.0,1.0,57,0.00,,,0.00,Wunderground PWS Mod,2013-02-21 12:31:00,
2013-02-21 07:41:00,26.9,13.3,29.97,NNE,23,0.0,8.0,56,0.00,,,0.00,Wunderground PWS Mod,2013-02-21 12:41:00,
2013-02-21 07:51:00,27.4,13.3,29.97,SE,139,1.0,8.0,55,0.00,,,0.00,Wunderground PWS Mod,2013-02-21 12:51:00,
2013-02-21 08:01:00,28.1,14.0,29.97,SSE,153,1.0,8.0,55,0.00,,,0.00,Wunderground PWS Mod,2013-02-21 13:01:00,
2013-02-21 08:11:00,29.5,14.0,29.97,North,355,1.0,3.0,52,0.00,,,0.00,Wunderground PWS Mod,2013-02-21 13:11:00,
2013-02-21 08:21:00,29.1,13.2,29.97,NNW,327,3.0,4.0,51,0.00,,,0.00,Wunderground PWS Mod,2013-02-21 13:21:00,
2013-02-21 08:31:00,29.0,13.1,29.98,WNW,284,2.0,2.0,51,0.00,,,0.00,Wunderground PWS Mod,2013-02-21 13:31:00,
2013-02-21 08:41:00,29.2,13.3,29.98,NW,317,3.0,3.0,51,0.00,,,0.00,Wunderground PWS Mod,2013-02-21 13:41:00,
2013-02-21 08:51:00,28.6,13.2,29.98,NNW,341,4.0,4.0,52,0.00,,,0.00,Wunderground PWS Mod,2013-02-21 13:51:00,
2013-02-21 09:01:00,29.1,13.6,29.98,West,278,3.0,3.0,52,0.00,,,0.00,Wunderground PWS Mod,2013-02-21 14:01:00,
2013-02-21 09:10:00,29.1,13.6,29.99,NNW,338,3.0,12.0,52,0.00,,,0.00,Wunderground PWS Mod,2013-02-21 14:10:00,
2013-02-21 09:11:00,29.3,13.4,29.99,North,349,3.0,12.0,51,0.00,,,0.00,Wunderground PWS Mod,2013-02-21 14:11:00,
2013-02-21 09:21:00,29.3,12.5,29.99,North,360,5.0,12.0,49,0.00,,,0.00,Wunderground PWS Mod,2013-02-21 14:21:00,
2013-02-21 09:31:00,28.7,12.4,29.99,NNW,344,5.0,14.0,50,0.00,,,0.00,Wunderground PWS Mod,2013-02-21 14:31:00,
2013-02-21 09:41:00,28.7,12.4,30.00,NNW,342,5.0,12.0,50,0.00,,,0.00,Wunderground PWS Mod,2013-02-21 14:41:00,
2013-02-21 09:51:00,28.0,12.6,30.00,WNW,296,5.0,5.0,52,0.00,,,0.00,Wunderground PWS Mod,2013-02-21 14:51:00,
2013-02-21 10:01:00,28.2,12.4,30.01,NNW,341,5.0,12.0,51,0.00,,,0.00,Wunderground PWS Mod,2013-02-21 15:01:00,
2013-02-21 10:11:00,27.8,12.4,30.00,NNW,333,6.0,6.0,52,0.00,,,0.00,Wunderground PWS Mod,2013-02-21 15:11:00,
2013-02-21 10:21:00,28.3,12.9,30.00,NW,316,5.0,14.0,52,0.00,,,0.00,Wunderground PWS Mod,2013-02-21 15:21:00,
2013-02-21 10:31:00,28.7,12.8,30.01,NNW,345,6.0,6.0,51,0.00,,,0.00,Wunderground PWS Mod,2013-02-21 15:31:00,
2013-02-21 10:41:00,28.9,13.5,30.01,NNE,33,4.0,4.0,52,0.00,,,0.00,Wunderground PWS Mod,2013-02-21 15:41:00,
2013-02-21 10:51:00,28.8,12.9,30.02,NW,316,4.0,4.0,51,0.00,,,0.00,Wunderground PWS Mod,2013-02-21 15:51:00,
2013-02-21 11:01:00,28.8,13.4,30.02,North,5,3.0,14.0,52,0.00,,,0.00,Wunderground PWS Mod,2013-02-21 16:01:00,
2013-02-21 11:11:00,29.7,13.8,30.03,NW,325,4.0,4.0,51,0.00,,,0.00,Wunderground PWS Mod,2013-02-21 16:11:00,
2013-02-21 11:21:00,30.0,13.6,30.03,NNW,329,4.0,9.0,50,0.00,,,0.00,Wunderground PWS Mod,2013-02-21 16:21:00,
2013-02-21 11:31:00,29.5,14.0,30.04,NNW,338,4.0,9.0,52,0.00,,,0.00,Wunderground PWS Mod,2013-02-21 16:31:00,
2013-02-21 11:41:00,30.3,13.9,30.03,North,360,4.0,4.0,50,0.00,,,0.00,Wunderground PWS Mod,2013-02-21 16:41:00,
2013-02-21 11:51:00,31.1,14.6,30.03,North,355,4.0,9.0,50,0.00,,,0.00,Wunderground PWS Mod,2013-02-21 16:51:00,
2013-02-21 12:01:00,31.1,14.6,30.03,North,351,4.0,9.0,50,0.00,,,0.00,Wunderground PWS Mod,2013-02-21 17:01:00,
2013-02-21 12:10:00,31.2,14.2,30.03,NNW,338,4.0,11.0,49,0.00,,,0.00,Wunderground PWS Mod,2013-02-21 17:10:00,
2013-02-21 12:12:00,30.2,14.2,30.03,NNW,339,3.0,11.0,51,0.00,,,0.00,Wunderground PWS Mod,2013-02-21 17:12:00,
2013-02-21 12:21:00,30.7,14.2,30.03,NNW,346,4.0,4.0,50,0.00,,,0.00,Wunderground PWS Mod,2013-02-21 17:21:00,
2013-02-21 12:31:00,31.2,14.7,30.03,North,360,2.0,11.0,50,0.00,,,0.00,Wunderground PWS Mod,2013-02-21 17:31:00,
2013-02-21 12:41:00,31.7,14.7,30.03,NNE,17,4.0,11.0,49,0.00,,,0.00,Wunderground PWS Mod,2013-02-21 17:41:00,
2013-02-21 12:51:00,31.7,14.7,30.02,NNW,338,3.0,11.0,49,0.00,,,0.00,Wunderground PWS Mod,2013-02-21 17:51:00,
2013-02-21 13:01:00,31.3,14.3,30.02,NW,323,5.0,5.0,49,0.00,,,0.00,Wunderground PWS Mod,2013-02-21 18:01:00,
2013-02-21 13:12:00,31.1,14.6,30.03,North,360,5.0,12.0,50,0.00,,,0.00,Wunderground PWS Mod,2013-02-21 18:12:00,
2013-02-21 13:21:00,31.6,15.1,30.03,NW,316,4.0,4.0,50,0.00,,,0.00,Wunderground PWS Mod,2013-02-21 18:21:00,
2013-02-21 13:31:00,31.9,14.9,30.03,North,360,4.0,4.0,49,0.00,,,0.00,Wunderground PWS Mod,2013-02-21 18:31:00,
2013-02-21 13:41:00,31.6,15.1,30.03,North,360,5.0,5.0,50,0.00,,,0.00,Wunderground PWS Mod,2013-02-21 18:41:00,
2013-02-21 13:51:00,32.1,16.0,30.03,NNW,346,5.0,12.0,51,0.00,,,0.00,Wunderground PWS Mod,2013-02-21 18:51:00,
2013-02-21 14:01:00,31.8,15.7,30.03,NW,313,5.0,5.0,51,0.00,,,0.00,Wunderground PWS Mod,2013-02-21 19:01:00,
2013-02-21 14:10:00,31.8,14.8,30.03,NNW,338,5.0,15.0,49,0.00,,,0.00,Wunderground PWS Mod,2013-02-21 19:10:00,
2013-02-21 14:11:00,32.0,15.0,30.04,NW,325,4.0,4.0,49,0.00,,,0.00,Wunderground PWS Mod,2013-02-21 19:11:00,
2013-02-21 14:21:00,31.8,15.3,30.05,North,355,5.0,15.0,50,0.00,,,0.00,Wunderground PWS Mod,2013-02-21 19:21:00,
2013-02-21 14:31:00,31.6,15.1,30.06,North,11,5.0,15.0,50,0.00,,,0.00,Wunderground PWS Mod,2013-02-21 19:31:00,
2013-02-21 14:41:00,31.0,14.5,30.07,NNW,344,6.0,6.0,50,0.00,,,0.00,Wunderground PWS Mod,2013-02-21 19:41:00,
2013-02-21 14:51:00,31.2,14.7,30.07,NNE,20,4.0,15.0,50,0.00,,,0.00,Wunderground PWS Mod,2013-02-21 19:51:00,
2013-02-21 15:01:00,30.2,14.2,30.07,North,355,5.0,15.0,51,0.00,,,0.00,Wunderground PWS Mod,2013-02-21 20:01:00,
2013-02-21 15:11:00,29.6,14.5,30.08,NW,325,3.0,14.0,53,0.00,,,0.00,Wunderground PWS Mod,2013-02-21 20:11:00,
2013-02-21 15:21:00,29.1,14.5,30.09,SE,137,4.0,4.0,54,0.00,,,0.00,Wunderground PWS Mod,2013-02-21 20:21:00,
2013-02-21 15:31:00,28.6,14.0,30.09,NW,313,4.0,14.0,54,0.00,,,0.00,Wunderground PWS Mod,2013-02-21 20:31:00,
2013-02-21 15:41:00,28.9,14.7,30.10,North,5,3.0,14.0,55,0.00,,,0.00,Wunderground PWS Mod,2013-02-21 20:41:00,
2013-02-21 15:51:00,29.1,14.5,30.11,NNE,18,4.0,4.0,54,0.00,,,0.00,Wunderground PWS Mod,2013-02-21 20:51:00,
2013-02-21 16:01:00,29.1,14.9,30.11,North,355,3.0,14.0,55,0.00,,,0.00,Wunderground PWS Mod,2013-02-21 21:01:00,
2013-02-21 16:11:00,28.8,14.6,30.12,NNW,331,3.0,9.0,55,0.00,,,0.00,Wunderground PWS Mod,2013-02-21 21:11:00,
2013-02-21 16:21:00,28.6,14.5,30.13,NNE,28,3.0,3.0,55,0.00,,,0.00,Wunderground PWS Mod,2013-02-21 21:21:00,